Time,TemperatureF,DewpointF,PressureIn,WindDirection,WindDirectionDegrees,WindSpeedMPH,WindSpeedGustMPH,Humidity,HourlyPrecipIn,Conditions,Clouds,dailyrainin,SoftwareType,DateUTC
2013-04-11 00:00:00,70.5,56.8,29.66,North,-999,-999.0,-999.0,62,-99.99,,,-99.99,meteohub,2013-04-11 04:00:00,
2013-04-11 00:01:00,70.5,56.5,29.66,North,-999,-999.0,-999.0,61,-99.99,,,-99.99,meteohub,2013-04-11 04:01:00,
2013-04-11 00:02:00,70.5,56.8,29.66,North,-999,-999.0,-999.0,62,-99.99,,,-99.99,meteohub,2013-04-11 04:02:00,
2013-04-11 00:08:00,70.3,56.7,29.66,North,-999,-999.0,-999.0,62,-99.99,,,-99.99,meteohub,2013-04-11 04:08:00,
2013-04-11 00:13:00,70.2,57.0,29.66,North,-999,-999.0,-999.0,63,-99.99,,,-99.99,meteohub,2013-04-11 04:13:00,
2013-04-11 00:18:00,70.0,56.8,29.66,North,-999,-999.0,-999.0,63,-99.99,,,-99.99,meteohub,2013-04-11 04:18:00,
2013-04-11 00:23:00,69.8,56.1,29.66,North,-999,-999.0,-999.0,62,-99.99,,,-99.99,meteohub,2013-04-11 04:23:00,
2013-04-11 00:29:00,69.6,56.5,29.66,North,-999,-999.0,-999.0,63,-99.99,,,-99.99,meteohub,2013-04-11 04:29:00,
2013-04-11 00:34:00,69.4,56.3,29.66,North,-999,-999.0,-999.0,63,-99.99,,,-99.99,meteohub,2013-04-11 04:34:00,
2013-04-11 00:39:00,69.4,55.9,29.66,North,-999,-999.0,-999.0,62,-99.99,,,-99.99,meteohub,2013-04-11 04:39:00,
2013-04-11 00:44:00,69.3,55.8,29.66,North,-999,-999.0,-999.0,62,-99.99,,,-99.99,meteohub,2013-04-11 04:44:00,
2013-04-11 00:49:00,69.1,55.6,29.66,North,-999,-999.0,-999.0,62,-99.99,,,-99.99,meteohub,2013-04-11 04:49:00,
2013-04-11 00:54:00,68.9,55.4,29.66,North,-999,-999.0,-999.0,62,-99.99,,,-99.99,meteohub,2013-04-11 04:54:00,
2013-04-11 01:00:00,68.7,55.2,29.66,North,-999,-999.0,-999.0,62,-99.99,,,-99.99,meteohub,2013-04-11 05:00:00,
2013-04-11 01:05:00,68.5,55.0,29.66,North,-999,-999.0,-999.0,62,-99.99,,,-99.99,meteohub,2013-04-11 05:05:00,
2013-04-11 01:10:00,68.5,55.0,29.66,North,-999,-999.0,-999.0,62,-99.99,,,-99.99,meteohub,2013-04-11 05:10:00,
2013-04-11 01:15:00,68.4,54.9,29.66,North,-999,-999.0,-999.0,62,-99.99,,,-99.99,meteohub,2013-04-11 05:15:00,
2013-04-11 01:21:00,68.2,54.7,29.66,North,-999,-999.0,-999.0,62,-99.99,,,-99.99,meteohub,2013-04-11 05:21:00,
2013-04-11 01:26:00,68.2,55.0,29.66,North,-999,-999.0,-999.0,63,-99.99,,,-99.99,meteohub,2013-04-11 05:26:00,
2013-04-11 01:31:00,68.0,54.5,29.66,North,-999,-999.0,-999.0,62,-99.99,,,-99.99,meteohub,2013-04-11 05:31:00,
2013-04-11 01:36:00,67.8,54.9,29.69,North,-999,-999.0,-999.0,63,-99.99,,,-99.99,meteohub,2013-04-11 05:36:00,
2013-04-11 01:41:00,67.8,55.2,29.69,North,-999,-999.0,-999.0,64,-99.99,,,-99.99,meteohub,2013-04-11 05:41:00,
2013-04-11 01:47:00,67.6,54.7,29.69,North,-999,-999.0,-999.0,63,-99.99,,,-99.99,meteohub,2013-04-11 05:47:00,
2013-04-11 01:52:00,67.5,54.9,29.66,North,-999,-999.0,-999.0,64,-99.99,,,-99.99,meteohub,2013-04-11 05:52:00,
2013-04-11 01:57:00,67.3,54.7,29.66,North,-999,-999.0,-999.0,64,-99.99,,,-99.99,meteohub,2013-04-11 05:57:00,
2013-04-11 02:02:00,67.1,54.5,29.66,North,-999,-999.0,-999.0,64,-99.99,,,-99.99,meteohub,2013-04-11 06:02:00,
2013-04-11 02:07:00,66.9,54.9,29.66,North,-999,-999.0,-999.0,65,-99.99,,,-99.99,meteohub,2013-04-11 06:07:00,
2013-04-11 02:12:00,66.9,54.9,29.66,North,-999,-999.0,-999.0,65,-99.99,,,-99.99,meteohub,2013-04-11 06:12:00,
2013-04-11 02:17:00,66.7,54.7,29.66,North,-999,-999.0,-999.0,65,-99.99,,,-99.99,meteohub,2013-04-11 06:17:00,
2013-04-11 02:22:00,66.7,55.0,29.66,North,-999,-999.0,-999.0,66,-99.99,,,-99.99,meteohub,2013-04-11 06:22:00,
2013-04-11 02:27:00,66.6,54.5,29.66,North,-999,-999.0,-999.0,65,-99.99,,,-99.99,meteohub,2013-04-11 06:27:00,
2013-04-11 02:32:00,66.4,54.3,29.66,North,-999,-999.0,-999.0,65,-99.99,,,-99.99,meteohub,2013-04-11 06:32:00,
2013-04-11 02:37:00,66.2,54.5,29.66,North,-999,-999.0,-999.0,66,-99.99,,,-99.99,meteohub,2013-04-11 06:37:00,
2013-04-11 02:42:00,66.2,54.9,29.66,North,-999,-999.0,-999.0,67,-99.99,,,-99.99,meteohub,2013-04-11 06:42:00,
2013-04-11 02:47:00,66.0,55.2,29.66,North,-999,-999.0,-999.0,68,-99.99,,,-99.99,meteohub,2013-04-11 06:47:00,
2013-04-11 02:52:00,66.0,55.2,29.66,North,-999,-999.0,-999.0,68,-99.99,,,-99.99,meteohub,2013-04-11 06:52:00,
2013-04-11 02:57:00,65.8,55.0,29.66,North,-999,-999.0,-999.0,68,-99.99,,,-99.99,meteohub,2013-04-11 06:57:00,
2013-04-11 03:02:00,65.7,54.9,29.66,North,-999,-999.0,-999.0,68,-99.99,,,-99.99,meteohub,2013-04-11 07:02:00,
2013-04-11 03:08:00,65.5,55.0,29.66,North,-999,-999.0,-999.0,69,-99.99,,,-99.99,meteohub,2013-04-11 07:08:00,
2013-04-11 03:13:00,65.5,55.4,29.66,North,-999,-999.0,-999.0,70,-99.99,,,-99.99,meteohub,2013-04-11 07:13:00,
2013-04-11 03:18:00,65.3,55.2,29.66,North,-999,-999.0,-999.0,70,-99.99,,,-99.99,meteohub,2013-04-11 07:18:00,
2013-04-11 03:23:00,65.3,55.2,29.66,North,-999,-999.0,-999.0,70,-99.99,,,-99.99,meteohub,2013-04-11 07:23:00,
2013-04-11 03:29:00,65.1,55.6,29.66,North,-999,-999.0,-999.0,71,-99.99,,,-99.99,meteohub,2013-04-11 07:29:00,
2013-04-11 03:34:00,65.1,55.6,29.66,North,-999,-999.0,-999.0,71,-99.99,,,-99.99,meteohub,2013-04-11 07:34:00,
2013-04-11 03:39:00,64.9,55.4,29.66,North,-999,-999.0,-999.0,71,-99.99,,,-99.99,meteohub,2013-04-11 07:39:00,
2013-04-11 03:44:00,64.8,54.7,29.66,North,-999,-999.0,-999.0,70,-99.99,,,-99.99,meteohub,2013-04-11 07:44:00,
2013-04-11 03:49:00,64.8,55.6,29.66,North,-999,-999.0,-999.0,72,-99.99,,,-99.99,meteohub,2013-04-11 07:49:00,
2013-04-11 03:54:00,64.6,55.8,29.66,North,-999,-999.0,-999.0,73,-99.99,,,-99.99,meteohub,2013-04-11 07:54:00,
2013-04-11 03:59:00,64.6,55.4,29.66,North,-999,-999.0,-999.0,72,-99.99,,,-99.99,meteohub,2013-04-11 07:59:00,
2013-04-11 04:04:00,64.4,55.6,29.66,North,-999,-999.0,-999.0,73,-99.99,,,-99.99,meteohub,2013-04-11 08:04:00,
2013-04-11 04:10:00,64.4,55.6,29.66,North,-999,-999.0,-999.0,73,-99.99,,,-99.99,meteohub,2013-04-11 08:10:00,
2013-04-11 04:15:00,64.2,55.8,29.66,North,-999,-999.0,-999.0,74,-99.99,,,-99.99,meteohub,2013-04-11 08:15:00,
2013-04-11 04:20:00,64.2,56.1,29.66,North,-999,-999.0,-999.0,75,-99.99,,,-99.99,meteohub,2013-04-11 08:20:00,
2013-04-11 04:25:00,64.2,56.8,29.66,North,-999,-999.0,-999.0,77,-99.99,,,-99.99,meteohub,2013-04-11 08:25:00,
2013-04-11 04:30:00,64.0,56.7,29.66,North,-999,-999.0,-999.0,77,-99.99,,,-99.99,meteohub,2013-04-11 08:30:00,
2013-04-11 04:35:00,63.9,56.8,29.66,North,-999,-999.0,-999.0,78,-99.99,,,-99.99,meteohub,2013-04-11 08:35:00,
2013-04-11 04:40:00,63.9,56.5,29.66,North,-999,-999.0,-999.0,77,-99.99,,,-99.99,meteohub,2013-04-11 08:40:00,
2013-04-11 04:45:00,63.9,56.8,29.66,North,-999,-999.0,-999.0,78,-99.99,,,-99.99,meteohub,2013-04-11 08:45:00,
2013-04-11 04:50:00,63.7,57.0,29.66,North,-999,-999.0,-999.0,79,-99.99,,,-99.99,meteohub,2013-04-11 08:50:00,
2013-04-11 04:56:00,63.7,57.0,29.66,North,-999,-999.0,-999.0,79,-99.99,,,-99.99,meteohub,2013-04-11 08:56:00,
2013-04-11 05:01:00,63.5,57.2,29.66,North,-999,-999.0,-999.0,80,-99.99,,,-99.99,meteohub,2013-04-11 09:01:00,
2013-04-11 05:06:00,63.5,57.2,29.66,North,-999,-999.0,-999.0,80,-99.99,,,-99.99,meteohub,2013-04-11 09:06:00,
2013-04-11 05:11:00,63.3,57.0,29.66,North,-999,-999.0,-999.0,80,-99.99,,,-99.99,meteohub,2013-04-11 09:11:00,
2013-04-11 05:17:00,63.3,57.4,29.66,North,-999,-999.0,-999.0,81,-99.99,,,-99.99,meteohub,2013-04-11 09:17:00,
2013-04-11 05:22:00,63.3,57.7,29.66,North,-999,-999.0,-999.0,82,-99.99,,,-99.99,meteohub,2013-04-11 09:22:00,
2013-04-11 05:27:00,63.1,57.2,29.66,North,-999,-999.0,-999.0,81,-99.99,,,-99.99,meteohub,2013-04-11 09:27:00,
2013-04-11 05:32:00,63.1,57.2,29.66,North,-999,-999.0,-999.0,81,-99.99,,,-99.99,meteohub,2013-04-11 09:32:00,
2013-04-11 05:37:00,63.0,57.7,29.66,North,-999,-999.0,-999.0,83,-99.99,,,-99.99,meteohub,2013-04-11 09:37:00,
2013-04-11 05:42:00,63.0,57.4,29.66,North,-999,-999.0,-999.0,82,-99.99,,,-99.99,meteohub,2013-04-11 09:42:00,
2013-04-11 05:48:00,63.0,57.4,29.66,North,-999,-999.0,-999.0,82,-99.99,,,-99.99,meteohub,2013-04-11 09:48:00,
2013-04-11 05:53:00,62.8,57.9,29.66,North,-999,-999.0,-999.0,84,-99.99,,,-99.99,meteohub,2013-04-11 09:53:00,
2013-04-11 05:58:00,62.8,57.9,29.66,North,-999,-999.0,-999.0,84,-99.99,,,-99.99,meteohub,2013-04-11 09:58:00,
2013-04-11 06:03:00,62.8,57.6,29.66,North,-999,-999.0,-999.0,83,-99.99,,,-99.99,meteohub,2013-04-11 10:03:00,
2013-04-11 06:08:00,62.8,57.9,29.66,North,-999,-999.0,-999.0,84,-99.99,,,-99.99,meteohub,2013-04-11 10:08:00,
2013-04-11 06:14:00,62.6,57.4,29.66,North,-999,-999.0,-999.0,83,-99.99,,,-99.99,meteohub,2013-04-11 10:14:00,
2013-04-11 06:19:00,62.6,58.1,29.66,North,-999,-999.0,-999.0,85,-99.99,,,-99.99,meteohub,2013-04-11 10:19:00,
2013-04-11 06:24:00,62.6,58.1,29.66,North,-999,-999.0,-999.0,85,-99.99,,,-99.99,meteohub,2013-04-11 10:24:00,
2013-04-11 06:29:00,62.8,58.8,29.66,North,-999,-999.0,-999.0,87,-99.99,,,-99.99,meteohub,2013-04-11 10:29:00,
2013-04-11 06:34:00,62.8,58.8,29.66,North,-999,-999.0,-999.0,87,-99.99,,,-99.99,meteohub,2013-04-11 10:34:00,
2013-04-11 06:39:00,63.0,59.4,29.66,North,-999,-999.0,-999.0,88,-99.99,,,-99.99,meteohub,2013-04-11 10:39:00,
2013-04-11 06:45:00,63.1,59.2,29.66,North,-999,-999.0,-999.0,87,-99.99,,,-99.99,meteohub,2013-04-11 10:45:00,
2013-04-11 06:50:00,63.1,59.2,29.66,North,-999,-999.0,-999.0,87,-99.99,,,-99.99,meteohub,2013-04-11 10:50:00,
2013-04-11 06:55:00,63.3,59.4,29.66,North,-999,-999.0,-999.0,87,-99.99,,,-99.99,meteohub,2013-04-11 10:55:00,
2013-04-11 07:00:00,63.5,59.5,29.66,North,-999,-999.0,-999.0,87,-99.99,,,-99.99,meteohub,2013-04-11 11:00:00,
2013-04-11 07:05:00,63.5,59.9,29.69,North,-999,-999.0,-999.0,88,-99.99,,,-99.99,meteohub,2013-04-11 11:05:00,
2013-04-11 07:11:00,63.7,59.7,29.69,North,-999,-999.0,-999.0,87,-99.99,,,-99.99,meteohub,2013-04-11 11:11:00,
2013-04-11 07:16:00,63.7,59.7,29.69,North,-999,-999.0,-999.0,87,-99.99,,,-99.99,meteohub,2013-04-11 11:16:00,
2013-04-11 07:22:00,63.9,59.9,29.69,North,-999,-999.0,-999.0,87,-99.99,,,-99.99,meteohub,2013-04-11 11:22:00,
2013-04-11 07:27:00,64.0,59.7,29.69,North,-999,-999.0,-999.0,86,-99.99,,,-99.99,meteohub,2013-04-11 11:27:00,
2013-04-11 07:32:00,64.0,60.1,29.69,North,-999,-999.0,-999.0,87,-99.99,,,-99.99,meteohub,2013-04-11 11:32:00,
2013-04-11 07:37:00,64.2,59.9,29.69,North,-999,-999.0,-999.0,86,-99.99,,,-99.99,meteohub,2013-04-11 11:37:00,
2013-04-11 07:42:00,64.2,59.9,29.69,North,-999,-999.0,-999.0,86,-99.99,,,-99.99,meteohub,2013-04-11 11:42:00,
2013-04-11 07:48:00,64.4,59.7,29.69,North,-999,-999.0,-999.0,85,-99.99,,,-99.99,meteohub,2013-04-11 11:48:00,
2013-04-11 07:53:00,64.4,59.7,29.69,North,-999,-999.0,-999.0,85,-99.99,,,-99.99,meteohub,2013-04-11 11:53:00,
2013-04-11 07:58:00,64.6,59.9,29.69,North,-999,-999.0,-999.0,85,-99.99,,,-99.99,meteohub,2013-04-11 11:58:00,
2013-04-11 08:03:00,64.8,59.9,29.69,North,-999,-999.0,-999.0,84,-99.99,,,-99.99,meteohub,2013-04-11 12:03:00,
2013-04-11 08:08:00,64.8,59.9,29.69,North,-999,-999.0,-999.0,84,-99.99,,,-99.99,meteohub,2013-04-11 12:08:00,
2013-04-11 08:13:00,65.1,60.1,29.69,North,-999,-999.0,-999.0,84,-99.99,,,-99.99,meteohub,2013-04-11 12:13:00,
2013-04-11 08:18:00,65.5,60.3,29.69,North,-999,-999.0,-999.0,83,-99.99,,,-99.99,meteohub,2013-04-11 12:18:00,
2013-04-11 08:24:00,65.7,60.4,29.69,North,-999,-999.0,-999.0,83,-99.99,,,-99.99,meteohub,2013-04-11 12:24:00,
2013-04-11 08:29:00,65.8,60.3,29.69,North,-999,-999.0,-999.0,82,-99.99,,,-99.99,meteohub,2013-04-11 12:29:00,
2013-04-11 08:34:00,66.0,60.4,29.72,North,-999,-999.0,-999.0,82,-99.99,,,-99.99,meteohub,2013-04-11 12:34:00,
2013-04-11 08:39:00,66.2,60.3,29.72,North,-999,-999.0,-999.0,81,-99.99,,,-99.99,meteohub,2013-04-11 12:39:00,
2013-04-11 08:44:00,66.4,60.1,29.72,North,-999,-999.0,-999.0,80,-99.99,,,-99.99,meteohub,2013-04-11 12:44:00,
2013-04-11 08:50:00,66.7,60.4,29.72,North,-999,-999.0,-999.0,80,-99.99,,,-99.99,meteohub,2013-04-11 12:50:00,
2013-04-11 08:55:00,67.1,60.4,29.72,North,-999,-999.0,-999.0,79,-99.99,,,-99.99,meteohub,2013-04-11 12:55:00,
2013-04-11 09:00:00,67.5,60.8,29.72,North,-999,-999.0,-999.0,79,-99.99,,,-99.99,meteohub,2013-04-11 13:00:00,
2013-04-11 09:05:00,67.8,60.8,29.69,North,-999,-999.0,-999.0,78,-99.99,,,-99.99,meteohub,2013-04-11 13:05:00,
2013-04-11 09:11:00,68.5,61.0,29.69,North,-999,-999.0,-999.0,77,-99.99,,,-99.99,meteohub,2013-04-11 13:11:00,
2013-04-11 09:16:00,68.9,60.6,29.69,North,-999,-999.0,-999.0,75,-99.99,,,-99.99,meteohub,2013-04-11 13:16:00,
2013-04-11 09:22:00,68.7,59.7,29.69,North,-999,-999.0,-999.0,73,-99.99,,,-99.99,meteohub,2013-04-11 13:22:00,
2013-04-11 09:27:00,69.3,60.3,29.69,North,-999,-999.0,-999.0,73,-99.99,,,-99.99,meteohub,2013-04-11 13:27:00,
2013-04-11 09:32:00,69.3,59.9,29.69,North,-999,-999.0,-999.0,72,-99.99,,,-99.99,meteohub,2013-04-11 13:32:00,
2013-04-11 09:37:00,69.1,59.7,29.69,North,-999,-999.0,-999.0,72,-99.99,,,-99.99,meteohub,2013-04-11 13:37:00,
2013-04-11 09:43:00,69.4,60.1,29.69,North,-999,-999.0,-999.0,72,-99.99,,,-99.99,meteohub,2013-04-11 13:43:00,
2013-04-11 09:48:00,69.4,59.7,29.69,North,-999,-999.0,-999.0,71,-99.99,,,-99.99,meteohub,2013-04-11 13:48:00,
2013-04-11 09:53:00,69.4,60.1,29.69,North,-999,-999.0,-999.0,72,-99.99,,,-99.99,meteohub,2013-04-11 13:53:00,
2013-04-11 09:58:00,69.6,59.7,29.69,North,-999,-999.0,-999.0,71,-99.99,,,-99.99,meteohub,2013-04-11 13:58:00,
2013-04-11 10:04:00,69.6,59.7,29.69,North,-999,-999.0,-999.0,71,-99.99,,,-99.99,meteohub,2013-04-11 14:04:00,
2013-04-11 10:09:00,69.8,59.9,29.69,North,-999,-999.0,-999.0,71,-99.99,,,-99.99,meteohub,2013-04-11 14:09:00,
2013-04-11 10:14:00,69.6,59.7,29.69,North,-999,-999.0,-999.0,71,-99.99,,,-99.99,meteohub,2013-04-11 14:14:00,
2013-04-11 10:19:00,69.8,59.5,29.69,North,-999,-999.0,-999.0,70,-99.99,,,-99.99,meteohub,2013-04-11 14:19:00,
2013-04-11 10:25:00,69.6,59.7,29.69,North,-999,-999.0,-999.0,71,-99.99,,,-99.99,meteohub,2013-04-11 14:25:00,
2013-04-11 10:30:00,69.8,59.5,29.69,North,-999,-999.0,-999.0,70,-99.99,,,-99.99,meteohub,2013-04-11 14:30:00,
2013-04-11 10:35:00,70.0,59.7,29.69,North,-999,-999.0,-999.0,70,-99.99,,,-99.99,meteohub,2013-04-11 14:35:00,
2013-04-11 10:40:00,70.3,60.1,29.69,North,-999,-999.0,-999.0,70,-99.99,,,-99.99,meteohub,2013-04-11 14:40:00,
2013-04-11 10:46:00,70.5,59.9,29.69,North,-999,-999.0,-999.0,69,-99.99,,,-99.99,meteohub,2013-04-11 14:46:00,
2013-04-11 10:51:00,70.9,60.3,29.69,North,-999,-999.0,-999.0,69,-99.99,,,-99.99,meteohub,2013-04-11 14:51:00,
2013-04-11 10:56:00,70.7,59.5,29.69,North,-999,-999.0,-999.0,68,-99.99,,,-99.99,meteohub,2013-04-11 14:56:00,
2013-04-11 11:01:00,70.5,59.5,29.69,North,-999,-999.0,-999.0,68,-99.99,,,-99.99,meteohub,2013-04-11 15:01:00,
2013-04-11 11:06:00,70.5,59.5,29.69,North,-999,-999.0,-999.0,68,-99.99,,,-99.99,meteohub,2013-04-11 15:06:00,
2013-04-11 11:12:00,71.2,60.1,29.69,North,-999,-999.0,-999.0,68,-99.99,,,-99.99,meteohub,2013-04-11 15:12:00,
2013-04-11 11:17:00,72.1,60.1,29.69,North,-999,-999.0,-999.0,66,-99.99,,,-99.99,meteohub,2013-04-11 15:17:00,
2013-04-11 11:22:00,72.1,59.7,29.69,North,-999,-999.0,-999.0,65,-99.99,,,-99.99,meteohub,2013-04-11 15:22:00,
2013-04-11 11:27:00,72.1,59.7,29.69,North,-999,-999.0,-999.0,65,-99.99,,,-99.99,meteohub,2013-04-11 15:27:00,
2013-04-11 11:32:00,72.7,60.3,29.69,North,-999,-999.0,-999.0,65,-99.99,,,-99.99,meteohub,2013-04-11 15:32:00,
2013-04-11 11:37:00,72.9,59.9,29.69,North,-999,-999.0,-999.0,64,-99.99,,,-99.99,meteohub,2013-04-11 15:37:00,
2013-04-11 11:42:00,73.9,61.5,29.69,North,-999,-999.0,-999.0,65,-99.99,,,-99.99,meteohub,2013-04-11 15:42:00,
2013-04-11 11:47:00,75.2,61.7,29.69,North,-999,-999.0,-999.0,63,-99.99,,,-99.99,meteohub,2013-04-11 15:47:00,
2013-04-11 11:53:00,75.9,60.6,29.69,North,-999,-999.0,-999.0,59,-99.99,,,-99.99,meteohub,2013-04-11 15:53:00,
2013-04-11 11:58:00,76.6,60.8,29.69,North,-999,-999.0,-999.0,58,-99.99,,,-99.99,meteohub,2013-04-11 15:58:00,
2013-04-11 12:03:00,77.4,61.0,29.69,North,-999,-999.0,-999.0,57,-99.99,,,-99.99,meteohub,2013-04-11 16:03:00,
2013-04-11 12:08:00,77.9,61.5,29.69,North,-999,-999.0,-999.0,57,-99.99,,,-99.99,meteohub,2013-04-11 16:08:00,
2013-04-11 12:13:00,77.7,60.3,29.69,North,-999,-999.0,-999.0,55,-99.99,,,-99.99,meteohub,2013-04-11 16:13:00,
2013-04-11 12:19:00,78.3,60.3,29.66,North,-999,-999.0,-999.0,54,-99.99,,,-99.99,meteohub,2013-04-11 16:19:00,
2013-04-11 12:24:00,78.8,60.3,29.66,North,-999,-999.0,-999.0,53,-99.99,,,-99.99,meteohub,2013-04-11 16:24:00,
2013-04-11 12:29:00,78.4,58.3,29.66,North,-999,-999.0,-999.0,50,-99.99,,,-99.99,meteohub,2013-04-11 16:29:00,
2013-04-11 12:34:00,78.4,58.8,29.66,North,-999,-999.0,-999.0,51,-99.99,,,-99.99,meteohub,2013-04-11 16:34:00,
2013-04-11 12:39:00,78.8,58.1,29.66,North,-999,-999.0,-999.0,49,-99.99,,,-99.99,meteohub,2013-04-11 16:39:00,
2013-04-11 12:45:00,79.7,57.7,29.66,North,-999,-999.0,-999.0,47,-99.99,,,-99.99,meteohub,2013-04-11 16:45:00,
2013-04-11 12:50:00,79.7,57.7,29.66,North,-999,-999.0,-999.0,47,-99.99,,,-99.99,meteohub,2013-04-11 16:50:00,
2013-04-11 12:55:00,78.3,57.6,29.66,North,-999,-999.0,-999.0,49,-99.99,,,-99.99,meteohub,2013-04-11 16:55:00,
2013-04-11 13:00:00,78.8,58.6,29.66,North,-999,-999.0,-999.0,50,-99.99,,,-99.99,meteohub,2013-04-11 17:00:00,
2013-04-11 13:05:00,78.4,58.3,29.66,North,-999,-999.0,-999.0,50,-99.99,,,-99.99,meteohub,2013-04-11 17:05:00,
2013-04-11 13:10:00,79.3,58.5,29.66,North,-999,-999.0,-999.0,49,-99.99,,,-99.99,meteohub,2013-04-11 17:10:00,
2013-04-11 13:15:00,80.2,58.8,29.66,North,-999,-999.0,-999.0,48,-99.99,,,-99.99,meteohub,2013-04-11 17:15:00,
2013-04-11 13:20:00,80.1,58.1,29.66,North,-999,-999.0,-999.0,47,-99.99,,,-99.99,meteohub,2013-04-11 17:20:00,
2013-04-11 13:26:00,81.1,57.7,29.66,North,-999,-999.0,-999.0,45,-99.99,,,-99.99,meteohub,2013-04-11 17:26:00,
2013-04-11 13:31:00,80.4,56.5,29.66,North,-999,-999.0,-999.0,44,-99.99,,,-99.99,meteohub,2013-04-11 17:31:00,
2013-04-11 13:36:00,81.0,58.3,29.63,North,-999,-999.0,-999.0,46,-99.99,,,-99.99,meteohub,2013-04-11 17:36:00,
2013-04-11 13:41:00,81.3,57.9,29.63,North,-999,-999.0,-999.0,45,-99.99,,,-99.99,meteohub,2013-04-11 17:41:00,
2013-04-11 13:46:00,81.7,57.7,29.63,North,-999,-999.0,-999.0,44,-99.99,,,-99.99,meteohub,2013-04-11 17:46:00,
2013-04-11 13:51:00,82.2,58.1,29.63,North,-999,-999.0,-999.0,44,-99.99,,,-99.99,meteohub,2013-04-11 17:51:00,
2013-04-11 13:56:00,82.0,57.9,29.63,North,-999,-999.0,-999.0,44,-99.99,,,-99.99,meteohub,2013-04-11 17:56:00,
2013-04-11 14:01:00,81.1,55.9,29.63,North,-999,-999.0,-999.0,42,-99.99,,,-99.99,meteohub,2013-04-11 18:01:00,
2013-04-11 14:06:00,80.8,55.6,29.63,North,-999,-999.0,-999.0,42,-99.99,,,-99.99,meteohub,2013-04-11 18:06:00,
2013-04-11 14:11:00,80.8,54.9,29.63,North,-999,-999.0,-999.0,41,-99.99,,,-99.99,meteohub,2013-04-11 18:11:00,
2013-04-11 14:17:00,82.2,55.6,29.63,North,-999,-999.0,-999.0,40,-99.99,,,-99.99,meteohub,2013-04-11 18:17:00,
2013-04-11 14:22:00,82.2,56.1,29.63,North,-999,-999.0,-999.0,41,-99.99,,,-99.99,meteohub,2013-04-11 18:22:00,
2013-04-11 14:27:00,81.9,55.2,29.63,North,-999,-999.0,-999.0,40,-99.99,,,-99.99,meteohub,2013-04-11 18:27:00,
2013-04-11 14:32:00,81.9,55.9,29.63,North,-999,-999.0,-999.0,41,-99.99,,,-99.99,meteohub,2013-04-11 18:32:00,
2013-04-11 14:37:00,82.9,56.8,29.63,North,-999,-999.0,-999.0,41,-99.99,,,-99.99,meteohub,2013-04-11 18:37:00,
2013-04-11 14:42:00,82.4,55.0,29.63,North,-999,-999.0,-999.0,39,-99.99,,,-99.99,meteohub,2013-04-11 18:42:00,
2013-04-11 14:48:00,81.9,55.2,29.63,North,-999,-999.0,-999.0,40,-99.99,,,-99.99,meteohub,2013-04-11 18:48:00,
2013-04-11 14:53:00,81.7,55.0,29.63,North,-999,-999.0,-999.0,40,-99.99,,,-99.99,meteohub,2013-04-11 18:53:00,
2013-04-11 14:58:00,81.3,53.2,29.63,North,-999,-999.0,-999.0,38,-99.99,,,-99.99,meteohub,2013-04-11 18:58:00,
2013-04-11 15:03:00,81.3,54.0,29.63,North,-999,-999.0,-999.0,39,-99.99,,,-99.99,meteohub,2013-04-11 19:03:00,
2013-04-11 15:08:00,81.7,55.0,29.60,North,-999,-999.0,-999.0,40,-99.99,,,-99.99,meteohub,2013-04-11 19:08:00,
2013-04-11 15:13:00,81.5,54.9,29.60,North,-999,-999.0,-999.0,40,-99.99,,,-99.99,meteohub,2013-04-11 19:13:00,
2013-04-11 15:19:00,81.1,53.8,29.60,North,-999,-999.0,-999.0,39,-99.99,,,-99.99,meteohub,2013-04-11 19:19:00,
2013-04-11 15:24:00,80.8,54.1,29.60,North,-999,-999.0,-999.0,40,-99.99,,,-99.99,meteohub,2013-04-11 19:24:00,
2013-04-11 15:29:00,81.1,54.5,29.60,North,-999,-999.0,-999.0,40,-99.99,,,-99.99,meteohub,2013-04-11 19:29:00,
2013-04-11 15:34:00,81.1,54.5,29.60,North,-999,-999.0,-999.0,40,-99.99,,,-99.99,meteohub,2013-04-11 19:34:00,
2013-04-11 15:39:00,81.7,55.0,29.60,North,-999,-999.0,-999.0,40,-99.99,,,-99.99,meteohub,2013-04-11 19:39:00,
2013-04-11 15:45:00,82.2,55.6,29.60,North,-999,-999.0,-999.0,40,-99.99,,,-99.99,meteohub,2013-04-11 19:45:00,
2013-04-11 15:50:00,82.2,56.1,29.60,North,-999,-999.0,-999.0,41,-99.99,,,-99.99,meteohub,2013-04-11 19:50:00,
2013-04-11 15:55:00,82.0,55.4,29.60,North,-999,-999.0,-999.0,40,-99.99,,,-99.99,meteohub,2013-04-11 19:55:00,
2013-04-11 16:00:00,81.3,54.7,29.60,North,-999,-999.0,-999.0,40,-99.99,,,-99.99,meteohub,2013-04-11 20:00:00,
2013-04-11 16:06:00,81.0,55.0,29.60,North,-999,-999.0,-999.0,41,-99.99,,,-99.99,meteohub,2013-04-11 20:06:00,
2013-04-11 16:11:00,81.1,54.5,29.60,North,-999,-999.0,-999.0,40,-99.99,,,-99.99,meteohub,2013-04-11 20:11:00,
2013-04-11 16:16:00,81.3,55.4,29.60,North,-999,-999.0,-999.0,41,-99.99,,,-99.99,meteohub,2013-04-11 20:16:00,
2013-04-11 16:21:00,81.1,55.2,29.57,North,-999,-999.0,-999.0,41,-99.99,,,-99.99,meteohub,2013-04-11 20:21:00,
2013-04-11 16:27:00,81.3,55.4,29.57,North,-999,-999.0,-999.0,41,-99.99,,,-99.99,meteohub,2013-04-11 20:27:00,
2013-04-11 16:32:00,81.0,54.3,29.57,North,-999,-999.0,-999.0,40,-99.99,,,-99.99,meteohub,2013-04-11 20:32:00,
2013-04-11 16:37:00,81.0,54.3,29.57,North,-999,-999.0,-999.0,40,-99.99,,,-99.99,meteohub,2013-04-11 20:37:00,
2013-04-11 16:42:00,81.0,55.0,29.57,North,-999,-999.0,-999.0,41,-99.99,,,-99.99,meteohub,2013-04-11 20:42:00,
2013-04-11 16:47:00,81.0,55.0,29.57,North,-999,-999.0,-999.0,41,-99.99,,,-99.99,meteohub,2013-04-11 20:47:00,
2013-04-11 16:52:00,81.0,54.3,29.57,North,-999,-999.0,-999.0,40,-99.99,,,-99.99,meteohub,2013-04-11 20:52:00,
2013-04-11 16:57:00,80.8,54.1,29.57,North,-999,-999.0,-999.0,40,-99.99,,,-99.99,meteohub,2013-04-11 20:57:00,
2013-04-11 17:02:00,80.6,54.1,29.57,North,-999,-999.0,-999.0,40,-99.99,,,-99.99,meteohub,2013-04-11 21:02:00,
2013-04-11 17:07:00,80.6,54.1,29.57,North,-999,-999.0,-999.0,40,-99.99,,,-99.99,meteohub,2013-04-11 21:07:00,
2013-04-11 17:12:00,80.6,54.1,29.57,North,-999,-999.0,-999.0,40,-99.99,,,-99.99,meteohub,2013-04-11 21:12:00,
2013-04-11 17:17:00,80.6,54.1,29.57,North,-999,-999.0,-999.0,40,-99.99,,,-99.99,meteohub,2013-04-11 21:17:00,
2013-04-11 17:23:00,80.6,54.1,29.57,North,-999,-999.0,-999.0,40,-99.99,,,-99.99,meteohub,2013-04-11 21:23:00,
2013-04-11 17:28:00,80.8,54.9,29.57,North,-999,-999.0,-999.0,41,-99.99,,,-99.99,meteohub,2013-04-11 21:28:00,
2013-04-11 17:33:00,80.6,54.1,29.57,North,-999,-999.0,-999.0,40,-99.99,,,-99.99,meteohub,2013-04-11 21:33:00,
2013-04-11 17:38:00,80.6,54.1,29.54,North,-999,-999.0,-999.0,40,-99.99,,,-99.99,meteohub,2013-04-11 21:38:00,
2013-04-11 17:43:00,80.4,54.5,29.54,North,-999,-999.0,-999.0,41,-99.99,,,-99.99,meteohub,2013-04-11 21:43:00,
2013-04-11 17:49:00,80.2,53.8,29.57,North,-999,-999.0,-999.0,40,-99.99,,,-99.99,meteohub,2013-04-11 21:49:00,
2013-04-11 17:54:00,80.2,54.3,29.57,North,-999,-999.0,-999.0,41,-99.99,,,-99.99,meteohub,2013-04-11 21:54:00,
2013-04-11 17:59:00,80.1,54.3,29.57,North,-999,-999.0,-999.0,41,-99.99,,,-99.99,meteohub,2013-04-11 21:59:00,
2013-04-11 18:04:00,79.9,54.1,29.57,North,-999,-999.0,-999.0,41,-99.99,,,-99.99,meteohub,2013-04-11 22:04:00,
2013-04-11 18:09:00,79.7,54.0,29.57,North,-999,-999.0,-999.0,41,-99.99,,,-99.99,meteohub,2013-04-11 22:09:00,
2013-04-11 18:14:00,79.7,54.0,29.57,North,-999,-999.0,-999.0,41,-99.99,,,-99.99,meteohub,2013-04-11 22:14:00,
2013-04-11 18:19:00,79.7,54.0,29.54,North,-999,-999.0,-999.0,41,-99.99,,,-99.99,meteohub,2013-04-11 22:19:00,
2013-04-11 18:24:00,79.7,54.5,29.54,North,-999,-999.0,-999.0,42,-99.99,,,-99.99,meteohub,2013-04-11 22:24:00,
2013-04-11 18:29:00,79.5,54.5,29.54,North,-999,-999.0,-999.0,42,-99.99,,,-99.99,meteohub,2013-04-11 22:29:00,
2013-04-11 18:35:00,79.7,54.5,29.54,North,-999,-999.0,-999.0,42,-99.99,,,-99.99,meteohub,2013-04-11 22:35:00,
2013-04-11 18:40:00,79.5,54.5,29.54,North,-999,-999.0,-999.0,42,-99.99,,,-99.99,meteohub,2013-04-11 22:40:00,
2013-04-11 18:45:00,79.5,54.5,29.54,North,-999,-999.0,-999.0,42,-99.99,,,-99.99,meteohub,2013-04-11 22:45:00,
2013-04-11 18:50:00,79.3,54.9,29.54,North,-999,-999.0,-999.0,43,-99.99,,,-99.99,meteohub,2013-04-11 22:50:00,
2013-04-11 18:55:00,79.2,54.7,29.54,North,-999,-999.0,-999.0,43,-99.99,,,-99.99,meteohub,2013-04-11 22:55:00,
2013-04-11 19:00:00,79.0,54.5,29.54,North,-999,-999.0,-999.0,43,-99.99,,,-99.99,meteohub,2013-04-11 23:00:00,
2013-04-11 19:05:00,79.0,54.5,29.54,North,-999,-999.0,-999.0,43,-99.99,,,-99.99,meteohub,2013-04-11 23:05:00,
2013-04-11 19:10:00,79.0,54.5,29.54,North,-999,-999.0,-999.0,43,-99.99,,,-99.99,meteohub,2013-04-11 23:10:00,
2013-04-11 19:16:00,78.8,54.5,29.54,North,-999,-999.0,-999.0,43,-99.99,,,-99.99,meteohub,2013-04-11 23:16:00,
2013-04-11 19:21:00,78.6,54.3,29.54,North,-999,-999.0,-999.0,43,-99.99,,,-99.99,meteohub,2013-04-11 23:21:00,
2013-04-11 19:26:00,78.4,54.7,29.54,North,-999,-999.0,-999.0,44,-99.99,,,-99.99,meteohub,2013-04-11 23:26:00,
2013-04-11 19:32:00,78.1,54.3,29.54,North,-999,-999.0,-999.0,44,-99.99,,,-99.99,meteohub,2013-04-11 23:32:00,
2013-04-11 19:37:00,77.7,54.1,29.54,North,-999,-999.0,-999.0,44,-99.99,,,-99.99,meteohub,2013-04-11 23:37:00,
2013-04-11 19:42:00,77.5,54.0,29.54,North,-999,-999.0,-999.0,44,-99.99,,,-99.99,meteohub,2013-04-11 23:42:00,
2013-04-11 19:47:00,77.4,54.3,29.54,North,-999,-999.0,-999.0,45,-99.99,,,-99.99,meteohub,2013-04-11 23:47:00,
2013-04-11 19:52:00,77.2,54.1,29.54,North,-999,-999.0,-999.0,45,-99.99,,,-99.99,meteohub,2013-04-11 23:52:00,
2013-04-11 19:57:00,77.2,54.1,29.54,North,-999,-999.0,-999.0,45,-99.99,,,-99.99,meteohub,2013-04-11 23:57:00,
2013-04-11 20:02:00,77.0,54.7,29.54,North,-999,-999.0,-999.0,46,-99.99,,,-99.99,meteohub,2013-04-12 00:02:00,
2013-04-11 20:08:00,76.6,54.3,29.54,North,-999,-999.0,-999.0,46,-99.99,,,-99.99,meteohub,2013-04-12 00:08:00,
2013-04-11 20:13:00,76.3,54.5,29.54,North,-999,-999.0,-999.0,47,-99.99,,,-99.99,meteohub,2013-04-12 00:13:00,
2013-04-11 20:18:00,75.9,54.3,29.54,North,-999,-999.0,-999.0,47,-99.99,,,-99.99,meteohub,2013-04-12 00:18:00,
2013-04-11 20:23:00,75.6,54.5,29.54,North,-999,-999.0,-999.0,48,-99.99,,,-99.99,meteohub,2013-04-12 00:23:00,
2013-04-11 20:28:00,75.0,54.5,29.54,North,-999,-999.0,-999.0,49,-99.99,,,-99.99,meteohub,2013-04-12 00:28:00,
2013-04-11 20:33:00,74.8,54.3,29.54,North,-999,-999.0,-999.0,49,-99.99,,,-99.99,meteohub,2013-04-12 00:33:00,
2013-04-11 20:39:00,74.5,54.7,29.54,North,-999,-999.0,-999.0,50,-99.99,,,-99.99,meteohub,2013-04-12 00:39:00,
2013-04-11 20:44:00,74.1,54.3,29.54,North,-999,-999.0,-999.0,50,-99.99,,,-99.99,meteohub,2013-04-12 00:44:00,
2013-04-11 20:49:00,73.8,54.5,29.54,North,-999,-999.0,-999.0,51,-99.99,,,-99.99,meteohub,2013-04-12 00:49:00,
2013-04-11 20:54:00,73.2,55.0,29.54,North,-999,-999.0,-999.0,53,-99.99,,,-99.99,meteohub,2013-04-12 00:54:00,
2013-04-11 20:59:00,73.8,55.6,29.54,North,-999,-999.0,-999.0,53,-99.99,,,-99.99,meteohub,2013-04-12 00:59:00,
2013-04-11 21:04:00,73.9,56.3,29.54,North,-999,-999.0,-999.0,54,-99.99,,,-99.99,meteohub,2013-04-12 01:04:00,
2013-04-11 21:10:00,74.5,57.7,29.54,North,-999,-999.0,-999.0,56,-99.99,,,-99.99,meteohub,2013-04-12 01:10:00,
2013-04-11 21:15:00,74.7,58.8,29.54,North,-999,-999.0,-999.0,58,-99.99,,,-99.99,meteohub,2013-04-12 01:15:00,
2013-04-11 21:20:00,74.7,59.4,29.54,North,-999,-999.0,-999.0,59,-99.99,,,-99.99,meteohub,2013-04-12 01:20:00,
2013-04-11 21:25:00,74.7,60.3,29.54,North,-999,-999.0,-999.0,61,-99.99,,,-99.99,meteohub,2013-04-12 01:25:00,
2013-04-11 21:31:00,74.7,60.3,29.54,North,-999,-999.0,-999.0,61,-99.99,,,-99.99,meteohub,2013-04-12 01:31:00,
2013-04-11 21:36:00,74.7,62.1,29.54,North,-999,-999.0,-999.0,65,-99.99,,,-99.99,meteohub,2013-04-12 01:36:00,
2013-04-11 21:41:00,74.7,61.7,29.54,North,-999,-999.0,-999.0,64,-99.99,,,-99.99,meteohub,2013-04-12 01:41:00,
2013-04-11 21:47:00,74.5,62.4,29.54,North,-999,-999.0,-999.0,66,-99.99,,,-99.99,meteohub,2013-04-12 01:47:00,
2013-04-11 21:52:00,74.5,62.4,29.54,North,-999,-999.0,-999.0,66,-99.99,,,-99.99,meteohub,2013-04-12 01:52:00,
2013-04-11 21:57:00,74.5,62.4,29.54,North,-999,-999.0,-999.0,66,-99.99,,,-99.99,meteohub,2013-04-12 01:57:00,
2013-04-11 22:02:00,74.3,62.6,29.54,North,-999,-999.0,-999.0,67,-99.99,,,-99.99,meteohub,2013-04-12 02:02:00,
2013-04-11 22:07:00,74.1,62.4,29.54,North,-999,-999.0,-999.0,67,-99.99,,,-99.99,meteohub,2013-04-12 02:07:00,
2013-04-11 22:12:00,73.9,63.1,29.54,North,-999,-999.0,-999.0,69,-99.99,,,-99.99,meteohub,2013-04-12 02:12:00,
2013-04-11 22:17:00,73.9,63.1,29.54,North,-999,-999.0,-999.0,69,-99.99,,,-99.99,meteohub,2013-04-12 02:17:00,
2013-04-11 22:22:00,73.8,63.3,29.51,North,-999,-999.0,-999.0,70,-99.99,,,-99.99,meteohub,2013-04-12 02:22:00,
2013-04-11 22:27:00,73.6,63.7,29.51,North,-999,-999.0,-999.0,71,-99.99,,,-99.99,meteohub,2013-04-12 02:27:00,
2013-04-11 22:32:00,73.2,64.0,29.51,North,-999,-999.0,-999.0,73,-99.99,,,-99.99,meteohub,2013-04-12 02:32:00,
2013-04-11 22:38:00,72.9,63.3,29.51,North,-999,-999.0,-999.0,72,-99.99,,,-99.99,meteohub,2013-04-12 02:38:00,
2013-04-11 22:43:00,72.7,63.5,29.51,North,-999,-999.0,-999.0,73,-99.99,,,-99.99,meteohub,2013-04-12 02:43:00,
2013-04-11 22:48:00,72.5,64.0,29.51,North,-999,-999.0,-999.0,75,-99.99,,,-99.99,meteohub,2013-04-12 02:48:00,
2013-04-11 22:53:00,72.5,64.6,29.51,North,-999,-999.0,-999.0,76,-99.99,,,-99.99,meteohub,2013-04-12 02:53:00,
2013-04-11 22:58:00,72.3,64.4,29.51,North,-999,-999.0,-999.0,76,-99.99,,,-99.99,meteohub,2013-04-12 02:58:00,
2013-04-11 23:03:00,72.1,64.2,29.51,North,-999,-999.0,-999.0,76,-99.99,,,-99.99,meteohub,2013-04-12 03:03:00,
2013-04-11 23:09:00,72.0,64.4,29.51,North,-999,-999.0,-999.0,77,-99.99,,,-99.99,meteohub,2013-04-12 03:09:00,
2013-04-11 23:14:00,72.0,64.4,29.51,North,-999,-999.0,-999.0,77,-99.99,,,-99.99,meteohub,2013-04-12 03:14:00,
2013-04-11 23:19:00,71.8,64.2,29.51,North,-999,-999.0,-999.0,77,-99.99,,,-99.99,meteohub,2013-04-12 03:19:00,
2013-04-11 23:24:00,71.8,64.6,29.51,North,-999,-999.0,-999.0,78,-99.99,,,-99.99,meteohub,2013-04-12 03:24:00,
2013-04-11 23:30:00,71.6,64.0,29.51,North,-999,-999.0,-999.0,77,-99.99,,,-99.99,meteohub,2013-04-12 03:30:00,
2013-04-11 23:35:00,71.6,64.4,29.54,North,-999,-999.0,-999.0,78,-99.99,,,-99.99,meteohub,2013-04-12 03:35:00,
2013-04-11 23:40:00,71.6,64.4,29.54,North,-999,-999.0,-999.0,78,-99.99,,,-99.99,meteohub,2013-04-12 03:40:00,
2013-04-11 23:45:00,71.4,64.6,29.54,North,-999,-999.0,-999.0,79,-99.99,,,-99.99,meteohub,2013-04-12 03:45:00,
2013-04-11 23:50:00,71.4,64.2,29.51,North,-999,-999.0,-999.0,78,-99.99,,,-99.99,meteohub,2013-04-12 03:50:00,
2013-04-11 23:55:00,71.4,64.2,29.51,North,-999,-999.0,-999.0,78,-99.99,,,-99.99,meteohub,2013-04-12 03:55:00,